Location: Briis
(48.6240°N, 2.1211°E)
Time: 00:28:17
(UTC+00:00)

Cosmos 1666 - Pass Details

Date: 25 September 2020
Orbit: 496 x 521 km, 82.5° (Epoch: 23 October)

Event Time Altitude Azimuth Distance (km) Brightness Sun altitude
Rises 04:28:45 0° 335° (NNW) 2,639 6.2 -13.0°
Reaches altitude 10° 04:31:25 10° 316° (NW) 1,741 5.1 -12.5°
Enters shadow 04:33:48 18° 277° (W) 1,321 4.2 -12.1°
